Terminal Aerodrome Forecast
Issued by NWS

Home | Current Version | Previous Version | Text Only | Print | Product List | Glossary On
Versions: 1 2 3 4 5 6 7 8 9 10 11 12 13 14 15 16 17 18 19 20 21 22 23 24 25 26 27 28 29 30 31 32 33 34 35 36 37 38 39 40 41 42 43 44 45 46 47 48 49 50
000
FTUS44 KHGX 041739
TAFIAH
TAF
KIAH 041739Z 0418/0524 12008KT P6SM VCSH SCT045 SCT060
     FM050000 VRB03KT P6SM FEW040
     FM050300 15005KT P6SM SKC
     FM051600 17007KT P6SM VCSH SCT050 PROB30 0517/0521 4SM -TSRA
      BKN050CB=

USA.gov is the U.S. government's official web portal to all federal, state and local government web resources and services.